Temperature
5 5 5 5 5 4 4 4 4 4 4 4 4 4 4 4 4 4 4 4 4 4 4 4 4 4 4 4 3 3 3 3 3 3 4 4 5 5 5 5 6 6 6
5 5 5 4 4 4 4 4 4 4 4 4 4 4 4 4 4 4 3 3 3 3 3 3 3 3 3 3 3 2 2 2 2 2 3 3 3 4 4 4 5 5 5
5 4 4 4 4 4 4 4 3 3 3 3 3 3 3 3 3 3 3 3 2 2 2 2 2 2 2 2 1 1 1 1 1 1 1 2 2 2 3 3 3 4 4
4 4 4 4 4 3 3 3 3 3 3 3 3 2 2 2 2 2 2 2 2 1 1 1 1 0 0 0 0 0 -0 -0 -0 -0 -0 0 1 1 1 1 2 2 3
4 4 4 4 3 3 3 3 3 2 2 2 2 2 2 1 1 1 1 1 1 0 0 0 -0 -1 -1 -1 -1 -1 -1 -1 -2 -2 -2 -1 -1 -1 -1 -1 -1 0 1
4 4 4 3 3 3 3 2 2 2 2 2 2 1 1 1 0 0 -0 -0 -0 -0 -0 -1 -1 -1 -1 -2 -2 -2 -2 -3 -3 -3 -3 -3 -3 -3 -3 -3 -3 -3 -2
4 4 3 3 3 3 2 2 2 2 1 1 1 1 0 0 -0 -1 -1 -1 -1 -1 -1 -1 -2 -2 -2 -2 -3 -3 -3 -4 -4 -4 -4 -4 -4 -4 -4 -4 -4 -4 -4
4 4 3 3 3 2 2 2 1 1 1 1 1 0 -0 -0 -1 -1 -1 -2 -2 -2 -2 -2 -2 -3 -3 -3 -4 -4 -4 -4 -4 -5 -5 -5 -5 -5 -5 -5 -5 -5 -4
4 3 3 3 2 2 2 1 1 1 1 0 0 -0 -1 -1 -1 -2 -2 -2 -2 -2 -3 -3 -3 -3 -4 -4 -5 -5 -5 -5 -5 -5 -5 -5 -5 -5 -5 -6 -5 -5 -5
4 3 3 2 2 2 1 1 1 1 0 -0 -0 -1 -1 -1 -2 -2 -3 -3 -3 -3 -3 -3 -4 -4 -5 -5 -6 -5 -5 -5 -6 -6 -6 -6 -6 -6 -6 -6 -6 -6 -6
4 3 3 2 2 1 1 1 0 0 -0 -1 -1 -1 -2 -2 -2 -3 -3 -3 -4 -4 -4 -4 -4 -5 -5 -6 -6 -6 -6 -7 -7 -7 -6 -6 -6 -6 -6 -6 -6 -7 -7
3 3 2 2 1 1 1 0 0 -0 -1 -1 -1 -2 -2 -2 -3 -3 -4 -4 -5 -5 -5 -5 -5 -6 -6 -6 -6 -7 -7 -7 -7 -7 -7 -7 -7 -7 -7 -7 -7 -7 -7
3 3 2 2 1 1 0 0 -0 -1 -1 -1 -2 -2 -2 -3 -3 -3 -4 -4 -5 -5 -6 -6 -6 -6 -6 -6 -7 -7 -7 -7 -8 -8 -8 -8 -8 -8 -7 -7 -7 -7 -7
3 2 2 1 1 0 -0 -0 -1 -1 -1 -2 -2 -2 -3 -3 -3 -4 -4 -5 -5 -6 -6 -6 -7 -7 -7 -7 -7 -7 -7 -8 -8 -8 -8 -8 -8 -8 -8 -8 -8 -8 -7
2 2 1 1 1 0 -0 -1 -1 -1 -2 -2 -3 -3 -3 -4 -4 -5 -5 -6 -6 -6 -7 -7 -7 -7 -7 -7 -7 -7 -8 -8 -8 -9 -9 -9 -9 -9 -9 -9 -9 -9 -9
2 2 1 1 0 -0 -1 -1 -2 -2 -2 -3 -3 -4 -4 -4 -5 -5 -6 -6 -6 -7 -7 -7 -7 -8 -8 -8 -8 -8 -8 -9 -9 -9 -9 -9 -9 -9 -9 -9 -9 -9 -9
2 1 1 0 -0 -1 -1 -2 -2 -2 -3 -3 -4 -4 -4 -5 -5 -5 -6 -6 -7 -7 -7 -7 -8 -8 -8 -9 -9 -9 -9 -9 -9 -9 -9 -9 -10 -10 -10 -9 -9 -10 -9
1 1 0 -0 -1 -1 -1 -2 -2 -3 -3 -3 -4 -4 -5 -5 -5 -6 -6 -7 -7 -7 -7 -8 -8 -8 -9 -9 -9 -9 -9 -9 -9 -9 -9 -10 -10 -10 -10 -10 -10 -10 -10
1 0 -0 -0 -1 -1 -2 -2 -3 -3 -4 -4 -4 -5 -5 -5 -6 -6 -7 -7 -7 -7 -8 -8 -8 -9 -9 -9 -9 -9 -9 -10 -9 -9 -10 -10 -10 -10 -10 -10 -10 -10 -10
0 -0 -1 -1 -1 -2 -2 -3 -3 -4 -4 -4 -5 -5 -5 -6 -6 -6 -7 -7 -7 -8 -8 -8 -8 -9 -9 -9 -9 -10 -10 -10 -10 -10 -10 -10 -10 -10 -10 -10 -10 -10 -10
-0 -0 -1 -1 -2 -2 -3 -3 -4 -4 -4 -5 -5 -5 -6 -6 -6 -7 -7 -7 -8 -8 -8 -8 -9 -9 -9 -9 -9 -9 -10 -9 -10 -10 -10 -10 -10 -10 -10 -10 -10 -10 -10
-1 -1 -1 -2 -2 -3 -3 -4 -4 -4 -5 -5 -5 -6 -6 -6 -7 -7 -7 -7 -8 -8 -8 -9 -9 -9 -9 -9 -9 -9 -9 -9 -9 -10 -10 -10 -10 -10 -10 -10 -10 -10 -10
-1 -1 -2 -2 -3 -3 -4 -4 -4 -5 -5 -5 -6 -6 -6 -7 -7 -7 -7 -8 -8 -8 -9 -9 -9 -9 -9 -9 -9 -10 -9 -9 -10 -10 -10 -10 -10 -10 -10 -10 -10 -10 -10
-1 -2 -2 -3 -3 -4 -4 -4 -5 -5 -5 -6 -6 -6 -7 -7 -7 -7 -8 -8 -8 -8 -9 -9 -9 -9 -9 -9 -9 -9 -9 -9 -9 -9 -9 -10 -10 -9 -10 -9 -9 -9 -10
-2 -2 -3 -3 -4 -4 -4 -5 -5 -5 -6 -6 -6 -7 -7 -7 -7 -8 -8 -8 -8 -9 -9 -9 -9 -9 -9 -9 -9 -9 -9 -9 -9 -9 -9 -9 -9 -9 -9 -9 -9 -9 -9
-2 -3 -3 -4 -4 -4 -5 -5 -5 -6 -6 -6 -6 -7 -7 -7 -8 -8 -8 -8 -9 -9 -9 -9 -9 -9 -9 -9 -9 -9 -9 -9 -9 -9 -9 -9 -9 -9 -9 -9 -9 -9 -9
Wind_Speed
0 0 1 1 2 2 3 3 4 4 5 6 6 6 7 7 7 7 6 7 7 6 6 6 6 5 4 4 4 4 4 3 5 4 3 6 6 8 9 9 10 9 10
2 1 1 1 2 2 3 3 4 4 4 4 5 5 6 6 6 6 6 6 6 6 6 6 6 5 5 5 4 4 4 4 3 6 5 5 6 8 8 8 8 9 9
2 2 1 1 1 1 1 2 3 3 4 4 5 5 5 5 5 5 5 5 5 5 4 5 5 5 5 4 4 4 4 4 3 4 6 5 5 6 8 8 8 7 9
3 3 2 2 1 1 0 1 1 2 2 3 3 3 3 3 3 3 3 4 4 4 4 4 4 4 4 4 4 4 4 4 4 4 5 5 5 6 6 7 8 7 8
4 4 3 2 2 1 1 0 1 1 2 2 3 3 3 3 2 2 2 3 3 4 4 4 4 6 7 6 5 4 4 4 4 5 5 6 6 6 7 6 9 9 7
5 5 4 3 2 2 1 1 0 1 1 2 2 2 3 3 5 5 3 2 2 3 4 4 5 5 8 10 10 9 8 6 5 5 5 7 8 7 6 8 8 9 7
6 5 4 4 3 3 2 2 1 1 0 1 1 2 3 4 5 5 4 2 2 2 3 4 5 6 8 5 7 9 9 10 9 6 6 7 8 8 8 8 8 8 9
5 5 4 4 4 3 3 3 2 2 2 1 1 2 2 4 5 5 5 2 2 3 3 3 4 5 6 6 5 5 5 6 8 6 5 7 7 7 7 8 10 9 9
6 6 5 5 5 4 4 4 3 2 2 2 2 2 2 4 6 5 4 1 2 3 4 4 5 5 9 11 6 6 7 7 9 11 12 12 14 15 12 7 7 8 9
7 6 5 5 6 5 5 4 3 2 2 2 2 2 3 4 6 6 5 2 3 3 4 4 7 8 11 11 6 6 8 8 7 7 8 10 9 10 12 7 6 7 7
6 5 5 5 6 5 4 3 3 2 2 2 3 3 3 5 6 7 6 3 3 4 4 4 5 11 12 13 11 6 10 9 6 6 6 6 6 5 6 5 5 6 7
5 5 5 5 5 4 4 3 3 3 3 3 3 4 3 4 5 6 7 7 6 4 5 4 6 12 13 13 10 10 13 10 5 5 6 6 6 6 6 6 8 8 9
5 5 5 5 4 4 4 4 3 3 3 3 3 4 3 3 4 7 8 9 9 5 5 9 11 12 12 9 11 12 10 5 5 6 7 6 6 6 6 6 7 8 9
6 5 5 5 4 4 4 4 4 4 4 4 4 4 4 4 4 4 4 5 7 7 6 8 11 11 9 9 9 7 5 5 5 6 7 7 6 6 6 6 7 7 7
6 5 5 5 5 4 4 5 5 5 6 5 5 4 4 5 6 8 6 4 4 5 6 4 3 4 4 5 5 5 4 5 6 6 7 8 8 8 8 6 6 7 7
6 6 5 5 4 4 4 4 6 7 8 9 8 7 6 8 9 9 10 10 10 10 6 4 4 5 6 6 6 6 5 6 6 6 7 7 8 8 9 7 7 7 9
7 6 5 5 5 5 4 4 3 4 6 7 8 8 8 8 9 9 9 10 10 8 4 4 5 6 6 6 6 6 7 7 6 7 7 7 7 8 8 8 8 8 9
7 7 6 5 5 5 5 4 4 3 3 3 5 7 8 8 8 8 8 7 5 4 4 5 5 6 6 6 6 7 7 7 7 7 7 7 7 8 8 8 8 9 9
6 5 5 5 5 5 4 4 4 4 4 4 3 4 6 6 7 7 6 3 4 5 5 5 6 6 6 7 7 7 8 8 8 8 8 8 7 8 8 9 9 13 12
6 8 7 5 5 4 4 5 4 4 4 4 4 4 3 3 3 4 3 4 4 5 5 6 6 6 7 6 7 7 8 8 8 8 8 8 8 8 9 10 10 10 10
5 6 9 6 5 5 5 5 5 5 5 5 5 5 6 4 4 5 4 4 5 5 6 6 6 7 6 6 7 8 9 9 9 9 8 8 8 8 9 9 10 10 10
5 5 5 5 5 5 5 5 5 5 5 5 4 5 8 4 4 4 5 5 5 5 5 6 6 6 6 7 7 8 9 10 9 9 9 9 8 9 9 9 9 9 9
6 6 5 5 5 7 6 5 5 5 5 5 5 4 4 4 5 5 5 5 5 5 6 6 7 7 7 7 8 8 9 10 10 10 10 10 9 9 9 9 11 11 10
6 6 6 5 5 5 5 5 5 5 5 5 5 5 5 5 5 6 5 5 5 5 6 6 7 9 12 10 10 11 12 13 13 11 12 11 11 10 10 10 10 11 11
6 6 6 6 6 6 6 5 5 5 5 5 5 5 4 5 5 5 5 5 6 6 8 8 8 9 11 13 13 14 17 20 18 14 11 10 11 11 11 10 10 10 10
6 6 6 5 6 6 6 6 6 6 5 5 5 4 4 5 5 5 5 5 5 6 7 8 9 11 13 13 15 18 20 20 20 19 13 9 10 10 9 9 10 10 10
Wind_Direction
221 92 78 60 50 54 50 34 27 26 23 25 26 28 28 28 29 39 40 39 40 34 32 36 29 25 22 12 8 5 351 325 287 300 316 327 330 331 328 330 328 323 320
191 158 130 86 64 55 41 28 28 26 23 24 30 34 32 30 31 37 37 37 39 34 28 30 21 18 21 13 12 5 353 340 308 303 312 324 323 327 322 321 325 325 320
178 163 152 124 91 58 35 23 28 24 23 24 31 31 27 26 29 31 36 37 38 32 24 28 14 11 11 3 3 357 343 339 327 309 312 320 317 328 330 328 325 323 325
181 173 181 191 184 175 84 41 33 30 29 21 19 18 17 18 23 22 32 35 31 25 17 17 9 2 353 345 351 345 338 335 332 321 314 318 319 324 329 333 331 331 325
185 188 204 203 184 166 145 64 32 30 26 16 16 9 2 3 10 15 28 31 24 16 11 5 357 360 360 356 352 347 343 337 332 327 322 324 328 336 335 329 323 323 317
192 201 201 188 182 183 191 180 78 18 2 11 5 356 352 353 358 7 16 27 20 9 357 347 343 347 350 351 347 347 344 334 327 319 317 317 317 317 317 317 317 319 316
197 202 197 192 195 200 190 182 207 234 252 316 325 339 329 329 345 350 355 21 10 345 337 337 339 340 343 325 329 335 334 331 325 312 305 303 304 309 308 306 305 302 295
200 204 202 196 203 201 193 207 222 221 228 249 283 299 307 318 334 336 338 2 330 316 313 309 308 310 316 320 315 316 309 308 309 305 286 289 296 297 293 295 296 296 288
206 210 206 199 202 203 209 218 218 211 232 246 262 277 290 304 323 323 324 290 293 296 296 298 305 296 312 322 322 313 310 304 312 311 310 310 311 314 315 311 308 306 300
213 211 202 196 198 208 215 217 215 211 229 249 273 270 273 286 306 312 314 273 289 292 293 294 306 311 313 317 312 305 304 301 302 306 307 307 306 309 314 308 299 296 297
205 197 196 196 200 205 205 204 205 212 228 252 268 275 272 279 296 305 308 291 279 289 297 297 298 312 314 314 312 300 298 305 304 304 301 299 299 298 300 298 293 285 286
188 194 201 200 201 197 192 203 202 200 218 246 261 276 269 274 289 295 301 302 300 287 292 290 293 308 313 314 313 307 309 312 306 302 300 300 302 301 298 295 292 282 271
188 200 204 198 199 193 192 200 204 204 216 241 249 265 275 273 280 294 300 304 305 300 289 298 304 310 315 315 313 314 317 312 303 302 302 300 294 288 292 295 293 288 281
196 203 197 194 201 200 203 204 206 210 218 234 246 257 268 274 271 274 274 288 298 298 292 296 304 309 311 310 312 314 311 302 303 298 301 299 297 295 296 298 299 303 297
199 201 198 200 200 203 211 215 218 218 215 226 233 237 251 268 275 287 295 290 288 287 299 297 301 305 307 305 301 296 295 300 303 298 299 302 303 303 301 301 294 296 290
199 202 200 199 201 202 210 240 245 239 245 248 249 251 258 269 285 291 296 298 300 302 304 300 299 299 299 302 303 303 299 298 296 296 295 294 296 297 298 297 292 289 290
203 202 199 198 199 202 206 215 244 260 253 255 259 264 267 277 285 291 295 297 299 304 296 287 288 291 293 295 296 295 296 295 291 289 288 288 288 290 291 293 293 291 289
201 203 199 199 198 202 207 211 217 231 256 264 264 269 274 280 285 291 295 299 295 297 282 280 282 287 289 290 291 292 293 294 291 288 284 283 282 285 287 287 286 284 287
198 200 197 196 197 201 203 205 213 223 238 254 265 274 278 284 286 287 292 279 277 280 281 280 281 283 284 286 287 288 288 288 287 287 284 282 280 281 282 282 284 287 288
203 206 197 194 196 199 201 206 213 219 230 241 252 258 270 274 272 278 276 272 271 275 278 279 282 281 283 283 285 286 287 286 285 283 281 279 277 276 278 281 283 284 284
197 202 200 197 200 202 204 209 212 216 227 239 247 255 262 263 263 268 273 272 271 275 279 280 282 283 281 281 281 282 283 284 282 281 279 277 276 276 276 278 279 279 282
192 196 195 200 203 204 209 209 210 218 228 240 251 259 264 261 259 263 266 271 272 273 276 279 280 279 277 277 280 283 283 283 281 279 278 276 274 275 276 277 278 279 280
191 195 200 204 205 213 215 208 211 219 228 234 242 249 256 255 257 261 265 270 275 277 279 278 279 281 282 279 277 276 278 281 281 280 280 278 276 275 275 274 275 278 279
195 199 202 204 204 206 209 213 215 221 226 232 237 242 247 252 260 265 267 271 274 277 279 279 278 279 283 288 286 282 279 280 282 279 274 273 273 274 272 272 272 272 275
198 203 205 206 207 209 212 216 218 220 226 232 236 242 247 253 260 265 268 272 276 279 281 283 282 284 287 289 290 289 290 293 292 287 278 271 270 270 270 271 271 273 274
203 205 208 208 209 209 212 217 219 220 225 231 233 236 243 250 257 262 267 271 277 282 285 287 285 288 292 293 293 296 299 301 300 298 294 281 274 273 272 271 273 274 277
Height
1484 1483 1482 1481 1480 1479 1478 1476 1475 1473 1472 1470 1468 1467 1465 1464 1462 1461 1459 1458 1457 1456 1455 1455 1454 1453 1452 1451 1450 1449 1448 1446 1444 1441 1441 1440 1439 1437 1436 1435 1433 1432 1432
1482 1481 1480 1480 1479 1477 1476 1475 1474 1472 1471 1469 1467 1466 1464 1462 1461 1459 1458 1456 1455 1454 1453 1452 1451 1450 1449 1447 1446 1445 1444 1442 1440 1437 1435 1434 1433 1431 1429 1428 1427 1425 1424
1480 1479 1478 1478 1477 1476 1474 1473 1472 1471 1469 1468 1466 1465 1463 1461 1460 1458 1456 1455 1453 1452 1451 1449 1448 1447 1445 1444 1442 1441 1440 1438 1436 1434 1431 1429 1427 1425 1423 1422 1420 1419 1418
1477 1477 1476 1475 1475 1474 1473 1472 1470 1469 1468 1466 1465 1463 1462 1460 1458 1457 1455 1453 1452 1450 1449 1447 1446 1444 1442 1441 1439 1437 1436 1434 1432 1430 1427 1424 1423 1420 1418 1415 1413 1412 1411
1474 1474 1473 1473 1472 1472 1471 1470 1468 1467 1466 1464 1463 1462 1460 1458 1457 1455 1453 1451 1450 1448 1447 1445 1444 1442 1440 1438 1436 1434 1433 1430 1428 1426 1423 1421 1418 1416 1414 1411 1409 1406 1404
1471 1471 1471 1470 1470 1469 1468 1467 1466 1465 1464 1462 1461 1459 1458 1456 1454 1453 1451 1449 1448 1446 1444 1443 1441 1440 1438 1436 1434 1432 1430 1428 1425 1423 1420 1418 1415 1414 1412 1409 1406 1402 1399
1468 1468 1468 1467 1467 1466 1465 1464 1463 1462 1461 1459 1458 1456 1455 1453 1452 1450 1448 1447 1445 1443 1441 1440 1438 1436 1435 1433 1431 1429 1427 1425 1423 1421 1418 1415 1413 1410 1408 1405 1403 1400 1396
1464 1464 1464 1464 1463 1463 1462 1461 1460 1459 1457 1456 1454 1453 1452 1450 1449 1447 1445 1444 1442 1440 1438 1437 1435 1433 1431 1429 1427 1425 1423 1421 1419 1417 1415 1412 1410 1407 1405 1402 1399 1395 1392
1460 1461 1461 1460 1460 1459 1458 1457 1456 1455 1454 1453 1451 1450 1448 1447 1446 1444 1442 1440 1438 1437 1435 1433 1431 1429 1428 1426 1424 1421 1419 1417 1415 1413 1411 1408 1406 1403 1401 1398 1395 1391 1387
1456 1457 1457 1456 1456 1455 1454 1454 1453 1451 1450 1449 1448 1446 1445 1443 1442 1440 1439 1437 1435 1433 1432 1430 1428 1426 1424 1422 1420 1417 1414 1412 1410 1407 1405 1403 1401 1398 1396 1394 1391 1388 1384
1452 1452 1452 1452 1451 1451 1450 1449 1448 1447 1446 1445 1444 1442 1441 1440 1438 1437 1435 1433 1431 1429 1427 1425 1424 1422 1419 1418 1416 1413 1410 1408 1405 1402 1399 1397 1395 1393 1391 1389 1386 1384 1380
1448 1448 1447 1447 1447 1446 1445 1445 1444 1443 1441 1440 1439 1438 1437 1436 1434 1432 1431 1429 1427 1425 1423 1421 1419 1417 1415 1413 1410 1408 1406 1403 1400 1397 1394 1391 1389 1387 1385 1383 1381 1378 1376
1443 1443 1443 1443 1442 1442 1441 1440 1439 1438 1437 1436 1435 1433 1432 1431 1430 1429 1427 1425 1423 1421 1419 1417 1415 1412 1410 1408 1405 1403 1400 1398 1395 1392 1389 1386 1384 1381 1379 1376 1374 1372 1369
1438 1438 1438 1437 1437 1437 1436 1435 1435 1434 1432 1431 1430 1429 1428 1426 1425 1424 1422 1421 1418 1416 1414 1412 1410 1408 1406 1403 1400 1398 1395 1393 1390 1387 1384 1381 1379 1376 1373 1371 1367 1364 1361
1433 1433 1433 1433 1432 1432 1431 1430 1429 1429 1428 1427 1425 1424 1423 1421 1421 1420 1418 1416 1414 1412 1410 1407 1405 1403 1400 1398 1395 1393 1390 1388 1385 1383 1380 1376 1373 1370 1368 1365 1362 1359 1356
1427 1427 1427 1427 1427 1426 1426 1425 1424 1424 1423 1422 1421 1420 1418 1417 1416 1415 1413 1412 1410 1408 1406 1403 1400 1398 1396 1393 1390 1388 1386 1383 1380 1377 1374 1371 1368 1365 1362 1360 1357 1354 1350
1421 1422 1422 1422 1421 1421 1420 1420 1419 1419 1418 1417 1416 1415 1414 1412 1411 1410 1408 1407 1405 1403 1401 1398 1396 1394 1391 1389 1386 1383 1380 1378 1375 1372 1369 1366 1363 1360 1357 1354 1351 1348 1345
1416 1416 1416 1416 1416 1416 1415 1415 1414 1414 1413 1412 1412 1410 1409 1408 1406 1405 1404 1402 1400 1398 1396 1394 1392 1389 1387 1384 1381 1379 1376 1373 1370 1367 1364 1361 1358 1355 1352 1348 1346 1342 1339
1410 1410 1410 1411 1410 1410 1410 1410 1409 1409 1408 1407 1406 1406 1405 1403 1402 1400 1399 1397 1395 1393 1392 1389 1387 1385 1382 1380 1377 1374 1370 1367 1364 1362 1358 1355 1353 1349 1346 1343 1340 1337 1334
1405 1405 1405 1405 1405 1405 1405 1404 1404 1403 1403 1402 1401 1400 1399 1398 1397 1395 1394 1392 1390 1389 1387 1385 1382 1380 1377 1375 1371 1368 1365 1362 1359 1356 1353 1350 1347 1344 1340 1337 1334 1331 1328
1399 1399 1399 1399 1399 1399 1399 1399 1399 1398 1398 1397 1396 1396 1395 1393 1392 1391 1389 1387 1386 1384 1382 1380 1377 1375 1372 1369 1366 1363 1360 1356 1353 1350 1347 1344 1341 1337 1334 1331 1328 1325 1322
1393 1393 1394 1394 1394 1394 1394 1394 1393 1393 1392 1392 1391 1391 1390 1389 1387 1386 1384 1383 1381 1379 1377 1375 1372 1370 1367 1364 1361 1357 1354 1350 1347 1344 1341 1338 1335 1331 1329 1326 1323 1320 1317
1388 1388 1388 1388 1388 1388 1388 1388 1388 1388 1387 1387 1386 1386 1385 1384 1383 1381 1380 1378 1376 1374 1372 1370 1367 1365 1362 1359 1356 1352 1349 1345 1342 1338 1335 1331 1328 1326 1323 1320 1317 1314 1311
1382 1382 1382 1382 1383 1383 1383 1383 1383 1382 1382 1382 1381 1381 1380 1379 1378 1377 1375 1373 1371 1369 1367 1365 1362 1360 1357 1354 1350 1347 1343 1340 1336 1333 1329 1326 1323 1320 1317 1314 1311 1308 1306
1376 1376 1376 1377 1377 1377 1377 1377 1377 1377 1377 1377 1376 1376 1375 1374 1373 1372 1370 1368 1366 1364 1362 1360 1357 1354 1352 1348 1345 1341 1338 1335 1331 1327 1324 1320 1317 1314 1311 1308 1306 1303 1301
1370 1371 1371 1371 1371 1371 1372 1372 1372 1372 1372 1372 1372 1371 1370 1369 1368 1367 1365 1364 1361 1359 1357 1355 1352 1350 1347 1343 1340 1336 1333 1329 1326 1322 1319 1316 1312 1309 1307 1304 1302 1299 1297